[[{"header":{"parameterUnit":"m.s-1","parameterCategory":1,"la1":30.2992,"la2":30.254,"lo1":-89.0895,"lo2":-89.0443,"dy":0.0025,"dx":0.0025,"nx":19,"ny":19,"refTime":"2026-04-17T21:00:00:Z","depth":0,"parameterNumber":2,"parameterNumberName":"U-component_of_WINDS"},"data":[0,0,0,0.2888,0.289,0.2983,0.2983,0.3097,0.3098,0,0,0,0,0,0,0,0,0,0,0,0.2854,0.2855,0.2888,0.289,0.2983,0.2983,0.3097,0.3098,0,0,0,0,0,0,0,0,0,0,0,0.2854,0.2854,0.2855,0.289,0.2983,0.2983,0.3097,0.3029,0,0,0,0,0,0,0,0,0,0,0.294,0.2902,0.2854,0.2855,0.2891,0.2983,0.2983,0.3026,0.3033,0.3051,0,0.3063,0,0.3082,0.3105,0.3105,0,0,0,0.2896,0.2895,0.2926,0.2855,0.2892,0.2982,0.2943,0.303,0.3038,0.3061,0.3065,0.3069,0.3084,0.3105,0.3106,0.3183,0.3183,0,0,0.2891,0.2868,0.292,0.2931,0.2912,0.294,0.2945,0.3035,0.3039,0.3065,0.3072,0.3086,0.3106,0.3107,0.3183,0.3183,0,0,0,0.2872,0.2864,0.2893,0.2926,0.2943,0.2942,0.2949,0.3035,0.3046,0.3073,0.3087,0.3107,0.3108,0.3183,0.3183,0.3163,0,0,0,0.2869,0.2854,0.289,0.2878,0.2941,0.2989,0.2946,0.304,0.3051,0.3086,0.3107,0.3109,0.3182,0.3183,0.3164,0.3159,0,0,0,0.285,0.2851,0.2862,0.2876,0.2915,0.2988,0.3005,0.3043,0.3059,0.3105,0.3109,0.3182,0.3183,0.3164,0.3159,0.3171,0,0,0,0.2825,0.2846,0.2861,0.2891,0.2914,0.2974,0.3004,0.3052,0.3089,0.3107,0.3183,0.3183,0.3164,0.316,0.3172,0.3177,0.3177,0,0,0.2839,0.2847,0.2866,0.2883,0.2934,0.2962,0.3013,0.307,0.3098,0.3154,0.3156,0.3163,0.3159,0.3171,0.3186,0.3186,0,0,0,0.2863,0.2877,0.2895,0.2928,0.297,0.3006,0.3057,0.3079,0.3127,0.312,0.3172,0.317,0.3179,0.3182,0.3182,0.3191,0.3183,0.3183,0.3183,0.2853,0.2883,0.2916,0.2957,0.2989,0.304,0.307,0.3108,0.3132,0.3143,0.316,0.3165,0.3169,0.3169,0.3177,0.3166,0.3166,0.3166,0.3166,0.2877,0.2901,0.2928,0.2971,0.3003,0.3041,0.3092,0.3107,0.3148,0.3155,0.3164,0.3169,0.3168,0.3177,0.3165,0.3165,0.3165,0.3165,0.3165,0.2874,0.289,0.2913,0.2962,0.2998,0.304,0.3077,0.3106,0.3135,0.3143,0.3164,0.3165,0.3169,0.3151,0.3151,0.3151,0.3151,0.3151,0.3151,0.2861,0.2887,0.2913,0.2958,0.2982,0.3018,0.3069,0.3095,0.3132,0.3151,0.3151,0.3174,0.3161,0.3157,0.3152,0.3151,0.3151,0.3151,0.3151,0.2875,0.2876,0.2915,0.2939,0.2994,0.3027,0.3063,0.3113,0.3139,0.3156,0.3177,0.3162,0.3174,0.3174,0.3171,0.3169,0.3169,0.3169,0.3169,0.2872,0.2879,0.2925,0.2961,0.3,0.3036,0.3082,0.3123,0.3166,0.3184,0.3189,0.3187,0.3186,0.3198,0.3198,0.3196,0.3201,0.3201,0.3201,0.2882,0.2894,0.2926,0.2964,0.3009,0.3047,0.3091,0.3134,0.3184,0.3203,0.3199,0.3198,0.3196,0.3194,0.3213,0.3212,0.3209,0,0]},{"header":{"parameterUnit":"m.s-1","parameterCategory":1,"la1":30.2992,"la2":30.254,"lo1":-89.0895,"lo2":-89.0443,"dy":0.0025,"dx":0.0025,"nx":19,"ny":19,"refTime":"2026-04-17T21:00:00:Z","depth":0,"parameterNumber":3,"parameterNumberName":"V-component_of_WINDS"},"data":[0,0,0,2.059,2.0589,2.0581,2.0581,2.0576,2.0576,0,0,0,0,0,0,0,0,0,0,0,2.0595,2.0596,2.059,2.0589,2.0581,2.0581,2.0576,2.0576,0,0,0,0,0,0,0,0,0,0,0,2.0595,2.0596,2.0596,2.0589,2.0581,2.0581,2.0576,2.058,0,0,0,0,0,0,0,0,0,0,2.0587,2.0596,2.0595,2.0596,2.0589,2.0581,2.0581,2.058,2.058,2.0582,0,2.0585,0,2.058,2.0576,2.0576,0,0,0,2.0587,2.0596,2.0591,2.0596,2.0589,2.0581,2.0584,2.058,2.0579,2.0581,2.0584,2.0584,2.058,2.0576,2.0576,2.0597,2.0597,0,0,2.0587,2.0596,2.0591,2.0591,2.0593,2.0584,2.0584,2.0579,2.0583,2.0584,2.0584,2.058,2.0576,2.0576,2.0596,2.0597,0,0,0,2.059,2.0596,2.0591,2.0591,2.0589,2.0584,2.0584,2.0584,2.0581,2.0584,2.058,2.0576,2.0576,2.0596,2.0596,2.0615,0,0,0,2.0591,2.0598,2.0591,2.0596,2.059,2.0586,2.0588,2.0581,2.0581,2.058,2.0576,2.0576,2.0596,2.0596,2.0614,2.0622,0,0,0,2.0595,2.0598,2.0598,2.0597,2.0593,2.0586,2.0583,2.0581,2.0578,2.0576,2.0576,2.0596,2.0596,2.0613,2.062,2.063,0,0,0,2.0602,2.0615,2.0599,2.0612,2.0593,2.0598,2.0583,2.0586,2.0586,2.0576,2.0596,2.0596,2.0613,2.062,2.0629,2.0639,2.0644,0,0,2.0623,2.0618,2.0625,2.061,2.062,2.0599,2.0611,2.0603,2.0595,2.0597,2.0597,2.0614,2.062,2.063,2.067,2.0674,0,0,0,2.0634,2.0639,2.064,2.064,2.0635,2.0631,2.062,2.0617,2.0618,2.0598,2.062,2.0624,2.0629,2.0633,2.0636,2.064,2.0599,2.0599,2.0599,2.0675,2.0665,2.0676,2.0665,2.0665,2.0655,2.0654,2.0648,2.0637,2.0643,2.0643,2.0669,2.0674,2.0677,2.0681,2.0648,2.0648,2.0648,2.0648,2.0704,2.071,2.0696,2.0701,2.0691,2.0695,2.0686,2.0678,2.0681,2.0668,2.0672,2.0658,2.0682,2.0685,2.065,2.0649,2.0649,2.0649,2.0649,2.0729,2.073,2.0727,2.0727,2.0728,2.0716,2.072,2.071,2.0701,2.0705,2.0704,2.0703,2.0701,2.0705,2.0705,2.0705,2.0705,2.0705,2.0705,2.0756,2.0752,2.0756,2.0752,2.0751,2.0749,2.0739,2.0738,2.0734,2.0727,2.0727,2.0715,2.0686,2.0679,2.0707,2.0706,2.0706,2.0706,2.0706,2.0788,2.0779,2.0786,2.0785,2.078,2.0782,2.077,2.0769,2.0766,2.0769,2.0757,2.0737,2.0731,2.0728,2.0722,2.0759,2.0759,2.0759,2.0759,2.0808,2.0805,2.0809,2.0809,2.0807,2.0797,2.0805,2.0798,2.0789,2.0787,2.0781,2.0772,2.077,2.0765,2.0761,2.0755,2.08,2.08,2.08,2.0827,2.0823,2.0831,2.0823,2.0818,2.0815,2.0822,2.0822,2.0811,2.0802,2.0786,2.0784,2.077,2.0766,2.0755,2.075,2.0738,0,0]}]]